Weather History for Santa Ana, CA

Change the Weather History Date:

Saturday, November 17, 2012

  Actual Average Record
Temperature  
Mean Temperature 67 °F 61 °F  
Max Temperature 72 °F 71 °F 86 °F (2008)
Min Temperature 61 °F 52 °F 45 °F (2000)
Degree Days  
Heating Degree Days 0 4  
Month to date heating degree days 29 50  
Since 1 July heating degree days 29 77  
Cooling Degree Days 2 1  
Month to date cooling degree days 35 19  
Year to date cooling degree days 1336 873  
Growing Degree Days 16 (Base 50)    
Moisture  
Dew Point 58 °F    
Average Humidity 73    
Maximum Humidity 84    
Minimum Humidity 61    
Precipitation  
Precipitation 0.14 in 0.04 in 0.14 in (2012)
Month to date precipitation 0.25 0.78  
Year to date precipitation 4.44 10.78  
Since 1 July precipitation 0.57 1.82  
Snow  
Snow 0.00 in - - ()
Month to date snowfall 0.0  
Year to date snowfall 0.0  
Since 1 July snowfall 0.0  
Snow Depth 0.00 in    
Sea Level Pressure  
Sea Level Pressure 30.07 in    
Wind  
Wind Speed 4 mph (SSE)    
Max Wind Speed 15 mph    
Max Gust Speed 18 mph    
Visibility 8 miles    
Events Rain    
T = Trace of Precipitation, MM = Missing Value Source: NWS Daily Summary

Daily Weather History Graph

Daily Weather History Graph

Search for Another Location

Airport:

Trip Planner

Search our weather history database for the weather conditions in past years. The results will help you decide how hot, cold, wet, or windy it might be!

Date:

Astronomy

Nov. 17, 2012 Rise Set
Actual Time 6:25 AM PST 4:47 PM PST
Civil Twilight 5:59 AM PST 5:13 PM PST
Nautical Twilight 5:28 AM PST 5:43 PM PST
Astronomical Twilight 4:59 AM PST 6:13 PM PST
Moon 10:14 AM PST (11/17) 9:01 PM PST (11/17)
Length of Visible Light 11h 14m
Length of Day
10h 21m
Waxing Crescent, 21% of the Moon is Illuminated
Nov 17
Waxing Crescent
Nov 20
First Quarter
Nov 28
Full
Dec 6
Last Quarter
Dec 13
New

Hourly Weather History & Observations

Time (PST) Temp. Dew Point Humidity Pressure Visibility Wind Dir Wind Speed Gust Speed Precip Events Conditions
12:32 AM 64.4 °F 59.0 °F 83% 30.08 in 4.0 mi ESE 3.5 mph - 0.02 in Rain Light Rain
12:42 AM 62.6 °F 57.2 °F 82% 30.07 in 2.5 mi Calm Calm - 0.03 in Rain Light Rain
12:53 AM 63.0 °F 57.9 °F 84% 30.07 in 2.0 mi SE 4.6 mph - 0.05 in Rain Light Rain
1:00 AM 62.6 °F 59.0 °F 88% 30.07 in 1.5 mi Calm Calm - 0.03 in Rain Rain
1:19 AM 62.6 °F 57.2 °F 82% 30.07 in 2.0 mi SE 5.8 mph - 0.08 in Rain Light Rain
1:27 AM 62.6 °F 59.0 °F 88% 30.06 in 3.0 mi East 8.1 mph - 0.08 in Rain Light Rain
1:38 AM 62.6 °F 57.2 °F 82% 30.06 in 5.0 mi East 8.1 mph - 0.08 in Rain Light Rain
1:53 AM 62.1 °F 57.0 °F 84% 30.05 in 10.0 mi East 5.8 mph - 0.08 in   Overcast
2:53 AM 62.1 °F 57.0 °F 84% 30.04 in 10.0 mi Calm Calm - N/A   Overcast
3:53 AM 63.0 °F 57.0 °F 81% 30.04 in 10.0 mi Calm Calm - N/A   Overcast
4:53 AM 63.0 °F 57.9 °F 84% 30.05 in 10.0 mi Calm Calm - N/A   Overcast
5:53 AM 62.1 °F 57.0 °F 84% 30.06 in 10.0 mi Calm Calm - N/A   Mostly Cloudy
6:53 AM 62.1 °F 57.0 °F 84% 30.08 in 10.0 mi Calm Calm - N/A   Scattered Clouds
7:53 AM 64.0 °F 57.0 °F 78% 30.09 in 10.0 mi South 5.8 mph - N/A   Overcast
8:53 AM 66.9 °F 57.9 °F 73% 30.10 in 10.0 mi Variable 3.5 mph - N/A   Mostly Cloudy
9:53 AM 69.1 °F 57.0 °F 65% 30.10 in 10.0 mi Calm Calm - N/A   Mostly Cloudy
10:53 AM 71.1 °F 57.0 °F 61% 30.09 in 10.0 mi South 6.9 mph - N/A   Mostly Cloudy
11:53 AM 71.1 °F 57.0 °F 61% 30.07 in 10.0 mi South 6.9 mph - 0.01 in   Scattered Clouds
12:53 PM 71.1 °F 57.0 °F 61% 30.06 in 10.0 mi SSW 11.5 mph - N/A   Mostly Cloudy
1:53 PM 70.0 °F 57.0 °F 63% 30.04 in 10.0 mi South 10.4 mph - N/A   Mostly Cloudy
2:53 PM 70.0 °F 57.0 °F 63% 30.04 in 10.0 mi South 10.4 mph - N/A   Mostly Cloudy
4:53 PM 66.9 °F 57.9 °F 73% 30.05 in 10.0 mi South 6.9 mph - N/A   Mostly Cloudy
5:11 PM 66.2 °F 59.0 °F 78% 30.05 in 10.0 mi South 9.2 mph - N/A   Overcast
5:30 PM 66.2 °F 59.0 °F 78% 30.05 in 10.0 mi South 6.9 mph - N/A   Overcast
5:46 PM 66.2 °F 59.0 °F 78% 30.05 in 10.0 mi South 8.1 mph - N/A   Overcast
5:53 PM 66.9 °F 59.0 °F 76% 30.06 in 10.0 mi South 9.2 mph - N/A   Overcast
6:35 PM 66.2 °F 59.0 °F 78% 30.06 in 10.0 mi SSW 8.1 mph - N/A   Mostly Cloudy
6:53 PM 64.9 °F 57.9 °F 78% 30.07 in 10.0 mi South 5.8 mph - N/A   Mostly Cloudy
7:53 PM 64.9 °F 57.9 °F 78% 30.07 in 10.0 mi South 6.9 mph - N/A   Mostly Cloudy
8:53 PM 66.0 °F 57.0 °F 73% 30.08 in 10.0 mi Calm Calm - N/A   Mostly Cloudy
9:53 PM 64.9 °F 57.0 °F 75% 30.09 in 10.0 mi Calm Calm - N/A   Mostly Cloudy
10:53 PM 64.9 °F 57.0 °F 75% 30.09 in 10.0 mi SE 3.5 mph - N/A   Mostly Cloudy
11:37 PM 64.4 °F 57.2 °F 77% 30.10 in 10.0 mi Calm Calm - N/A   Overcast
11:53 PM 64.9 °F 57.9 °F 78% 30.10 in 10.0 mi West 3.5 mph - N/A   Overcast